Camp Douglas, WI

6:39 PM CST on January 21, 2017 (GMT -0600)
Volk

Weather History for KVOK - October, 2012

Change the Weather History Date:

Friday, October 12, 2012

  Actual Average Record
Temperature  
Mean Temperature 34 °F -  
Max Temperature 51 °F 57 °F 80 °F (2008)
Min Temperature 16 °F 40 °F 16 °F (2012)
Degree Days  
Heating Degree Days 32    
Moisture  
Dew Point 20 °F    
Average Humidity 63    
Maximum Humidity 93    
Minimum Humidity 29    
Precipitation  
Precipitation 0.00 in - - ()
Sea Level Pressure  
Sea Level Pressure 30.38 in    
Wind  
Wind Speed 4 mph (SSW)    
Max Wind Speed 12 mph    
Max Gust Speed -    
Visibility 10 miles    
Events      
Averages and records for this station are not official NWS values.
T = Trace of Precipitation, MM = Missing Value Source: NWS Daily Summary

Daily Weather History Graph

Daily Weather History Graph

Search for Another Location

Airport or City:

Trip Planner

Search our weather history database for the weather conditions in past years. The results will help you decide how hot, cold, wet, or windy it might be!

Date:

Astronomy

Oct. 12, 2012 Rise Set
Actual Time 7:12 AM CDT 6:21 PM CDT
Civil Twilight 6:43 AM CDT 6:50 PM CDT
Nautical Twilight 6:10 AM CDT 7:23 PM CDT
Astronomical Twilight 5:36 AM CDT 7:57 PM CDT
Moon 3:50 AM CDT (10/12) 4:35 PM CDT (10/12)
Length of Visible Light 12h 06m
Length of Day
11h 09m
Waning Crescent, 10% of the Moon is Illuminated
Oct 12
Waning Crescent
Oct 15
New
Oct 21
First Quarter
Oct 29
Full
Nov 6
Last Quarter

Hourly Weather History & Observations

Time (CDT) Temp. Windchill Dew Point Humidity Pressure Visibility Wind Dir Wind Speed Gust Speed Precip Events Conditions
12:55 AM 22.3 °F 16.1 °F 18.3 °F 85% 30.39 in 10.0 mi West 4.6 mph - N/A   Clear
1:55 AM 19.8 °F 14.7 °F 16.7 °F 88% 30.41 in 10.0 mi West 3.5 mph - N/A   Clear
2:55 AM 19.2 °F 14.1 °F 16.3 °F 89% 30.42 in 10.0 mi West 3.5 mph - N/A   Clear
3:55 AM 20.5 °F 14.0 °F 17.6 °F 89% 30.43 in 10.0 mi West 4.6 mph - N/A   Clear
4:55 AM 18.7 °F 13.5 °F 16.5 °F 91% 30.44 in 10.0 mi WNW 3.5 mph - N/A   Clear
5:55 AM 16.5 °F 9.4 °F 14.4 °F 91% 30.45 in 10.0 mi WNW 4.6 mph - N/A   Clear
6:55 AM 18.9 °F 12.1 °F 15.1 °F 85% 30.47 in 10.0 mi West 4.6 mph - N/A   Clear
7:55 AM 19.4 °F - 17.6 °F 93% 30.48 in 10.0 mi Calm Calm - N/A   Scattered Clouds
8:55 AM 30.2 °F - 26.6 °F 86% 30.49 in 10.0 mi Calm Calm - N/A   Partly Cloudy
9:55 AM 35.6 °F - 26.6 °F 70% 30.50 in 10.0 mi Calm Calm - 0.00 in   Partly Cloudy
10:55 AM 41.0 °F 37.1 °F 28.4 °F 61% 30.49 in 10.0 mi SE 5.8 mph - N/A   Partly Cloudy
11:55 AM 44.6 °F 42.2 °F 23.0 °F 43% 30.48 in 10.0 mi SSE 4.6 mph - N/A   Partly Cloudy
12:55 PM 48.2 °F - 21.2 °F 34% 30.44 in 10.0 mi Variable 6.9 mph - N/A   Partly Cloudy
1:55 PM 48.2 °F - 21.2 °F 34% 30.41 in 10.0 mi Variable 6.9 mph - N/A   Clear
2:55 PM 50.0 °F - 19.4 °F 30% 30.38 in 10.0 mi SSE 11.5 mph - N/A   Clear
3:55 PM 51.3 °F - 19.4 °F 29% 30.36 in 10.0 mi SSE 8.1 mph - N/A   Clear
4:55 PM 50.5 °F - 18.9 °F 29% 30.34 in 10.0 mi South 6.9 mph - N/A   Clear
5:55 PM 48.6 °F - 18.9 °F 31% 30.33 in 10.0 mi SSE 5.8 mph - N/A   Clear
6:55 PM 38.8 °F - 21.0 °F 49% 30.32 in 10.0 mi Calm Calm - N/A   Clear
7:55 PM 32.4 °F - 21.7 °F 65% 30.30 in 10.0 mi Calm Calm - N/A   Clear
8:55 PM 31.5 °F - 21.4 °F 66% 30.26 in 10.0 mi Calm Calm - N/A   Partly Cloudy
9:55 PM 33.1 °F 26.9 °F 23.0 °F 66% 30.22 in 10.0 mi East 6.9 mph - N/A   Mostly Cloudy
10:55 PM 39.2 °F 37.0 °F 20.8 °F 48% 30.22 in 10.0 mi SSE 3.5 mph - N/A   Mostly Cloudy
11:55 PM 40.3 °F 35.5 °F 23.5 °F 51% 30.19 in 10.0 mi East 6.9 mph - N/A   Overcast